Location: An Tulaigh
(53.1928°N, 8.1647°W)
Time: 01:59:38
(UTC+00:00)

NOSS 3-3 (C) - Pass Details

Date: 15 May 2026
Orbit: 697 x 1516 km, 63.4° (Epoch: 11 January)

Event Time Altitude Azimuth Distance (km) Brightness Sun altitude
Rises 22:18:43 0° 239° (WSW) 3,238 6.8 -12.5°
Reaches altitude 10° 22:20:57 10° 242° (WSW) 2,386 6.1 -12.6°
Maximum altitude 22:26:25 65° 325° (NW) 999 4.3 -13.1°
Drops below altitude 10° 22:33:06 10° 47° (NE) 2,905 6.7 -13.5°
Sets 22:36:05 0° 51° (NE) 3,998 7.4 -13.7°
